Retour au catalogue

ONEWEB-0303

ActifCommunicationsPO
NORAD 49187·PAYLOAD·🇬🇧 United Kingdom

Lancé Sep 14, 2021 depuis Baikonur Cosmodrome

Loading…

Prochains Passages (prochaines 24 heures)

TLE

FraisSource: CelesTrak SupGP

Époque: Sep 14, 2026, 20:40 UTC

1 49187C 21083B   26257.86128889 -.00001477  00000+0 -37505-2 0  2574
2 49187  87.9171 317.6415 0002034 102.9048   7.3004 13.18687971    10

Suivez ONEWEB-0303 en temps réel avec AllMySat

Download on the App Store